Location: ??
(34.7252°N, 135.5457°E)
Time: 17:50:09
(UTC+00:00)

Cosmos 44 Rocket - Pass Details

Date: 24 September 2020
Orbit: 644 x 746 km, 65.1° (Epoch: 28 October)

Event Time Altitude Azimuth Distance (km) Brightness Sun altitude
Exits shadow 19:31:04 23° 295° (WNW) 1,400 4.4 -16.5°
Maximum altitude 19:31:45 24° 308° (NW) 1,375 4.5 -16.4°
Drops below altitude 10° 19:35:39 10° 2° (N) 2,121 5.9 -15.6°
Sets 19:38:25 0° 17° (NNE) 3,060 7.0 -15.1°
